This demonstration page uses our WeatherBlox Daily Observations layout. Learn more.

Left ArrowRight Arrow

Hourly Observations for January 29, 2020

Temp ( °F °C ) Dew Point ( °F °C ) Humidity (%) Winds ( mph kmh ) Pressure ( in mb ) Visibility ( mi km ) Precip ( " mm )
12:53 am 00:53 Clear 20 -6.7 17 -8.3 89 89 W 6 9 30.11 1020 10 16 0.00 0.00
1:53 am 01:53 Clear 21 -6.1 18 -7.8 88 88 NW 3 6 30.11 1020 10 16 0.00 0.00
2:53 am 02:53 Clear 24 -4.4 20 -6.7 84 84 WSW 9 15 30.11 1020 10 16 0.00 0.00
3:53 am 03:53 Clear 21 -6.1 18 -7.8 88 88 W 8 13 30.14 1021 10 16 0.00 0.00
4:53 am 04:53 Clear 23 -5 20 -6.7 88 88 W 8 13 30.16 1021 10 16 0.00 0.00
5:53 am 05:53 Clear 20 -6.7 17 -8.3 89 89 WSW 8 13 30.19 1023 10 16 0.00 0.00
6:53 am 06:53 Clear 20 -6.7 18 -7.8 92 92 SSW 5 7 30.19 1022 10 16 0.00 0.00
7:53 am 07:53 Sunny 20 -6.7 17 -8.3 89 89 SW 9 15 30.19 1022 10 16 0.00 0.00
8:53 am 08:53 Sunny 24 -4.4 21 -6.1 88 88 WSW 9 15 30.20 1023 10 16 0.00 0.00
9:53 am 09:53 Sunny 28 -2.2 24 -4.4 85 85 WSW 12 19 30.19 1022 10 16 0.00 0.00
10:53 am 10:53 Sunny 32 0 26 -3.3 79 79 SW 9 15 30.16 1021 10 16 0.00 0.00
11:53 am 11:53 Sunny 38 3.3 28 -2.2 68 68 SW 13 20 30.12 1020 10 16 0.00 0.00
12:53 pm 12:53 Sunny 41 5 26 -3.3 55 55 SW 14 22 30.08 1019 10 16 0.00 0.00
1:53 pm 13:53 Sunny 44 6.7 28 -2.2 53 53 SW 10 17 30.02 1017 10 16 0.00 0.00
2:53 pm 14:53 Sunny 46 7.8 26 -3.3 46 46 SSW 8 13 29.98 1015 10 16 0.00 0.00
3:53 pm 15:53 Sunny 46 7.8 29 -1.7 51 51 Calm 29.95 1014 10 16 0.00 0.00
4:53 pm 16:53 Sunny 35 1.7 28 -2.2 76 76 ENE 9 15 29.95 1014 10 16 0.00 0.00
5:53 pm 17:53 Clear 31 -0.6 27 -2.8 85 85 ENE 9 15 29.94 1014 10 16 0.00 0.00
6:53 pm 18:53 Clear 30 -1.1 26 -3.3 85 85 NE 3 6 29.93 1014 10 16 0.00 0.00
7:53 pm 19:53 Clear 38 3.3 25 -3.9 60 60 SW 17 28 29.90 1012 10 16 0.00 0.00
8:53 pm 20:53 Mostly Cloudy 39 3.9 25 -3.9 57 57 SW 16 26 29.88 1012 10 16 0.00 0.00
9:53 pm 21:53 Cloudy 39 3.9 25 -3.9 57 57 SW 16 26 29.87 1012 10 16 0.00 0.00
10:53 pm 22:53 Cloudy 37 2.8 30 -1.1 76 76 S 15 24 29.83 1010 10 16 0.00 0.00
11:53 pm 23:53 Mostly Cloudy 38 3.3 30 -1.1 73 73 WSW 10 17 29.83 1010 10 16 0.00 0.00

Powered by AerisWeather